Air Resources Laboratory banner image
Air Resources Laboratory web site National Oceanic and Atmospheric Administration (NOAA)

al roundup


Office: HUN

ASUS44 KHUN 121310
RWRHUN

WEATHER ROUNDUP FOR THE TENNESSEE VALLEY
NATIONAL WEATHER SERVICE HUNTSVILLE AL
700 AM CST TUE DEC 12 2017

ALZ001>004-121400-
NORTHWEST ALABAMA

CITY           SKY/WX    TMP DP  RH WIND       PRES   REMARKS
RUSSELLVILLE     N/A     37 N/A N/A MISG        N/A
SHOALS AIRPORT MOCLDY    44  31  60 W9        30.04R
SHOALS TVA RES   N/A     45 N/A N/A MISG        N/A
$$

ALZ005>007-016-121400-
NORTH CENTRAL ALABAMA

CITY           SKY/WX    TMP DP  RH WIND       PRES   REMARKS
CULLMAN AG STN   N/A     45 N/A N/A N5          N/A
DECATUR AP     CLOUDY    44  33  65 NW8       30.01R
HUNTSVILLE AP  CLOUDY    44  34  67 NW7       29.99R
MERIDIANVILLE  CLOUDY    43  32  65 NW6       29.97R
REDSTONE ARSN  CLOUDY    44  32  63 NW7       29.98R
VINEMONT AP    CLOUDY    42  28  57 NW6       30.00R
$$

ALZ008>010-121400-
NORTHEAST ALABAMA

CITY           SKY/WX    TMP DP  RH WIND       PRES   REMARKS
ALBERTVILLE    MOCLDY    43  34  70 NW8       29.95R
FORT PAYNE     PTCLDY    34  30  86 CALM      29.93R
SCOTTSBORO AP  CLOUDY    45  30  57 VRB5      29.96R
SCOTTSBORO HCN   N/A     45 N/A N/A MISG        N/A
VALLEY HEAD      N/A     30 N/A N/A MISG        N/A
$$

TNZ076-096-097-121400-
SOUTHEASTERN MIDDLE TENNESSEE

CITY           SKY/WX    TMP DP  RH WIND       PRES   REMARKS
TULLAHOMA      CLOUDY    41  32  70 N15       29.96R
WINCHESTER     CLOUDY    43  32  65 N15       29.96R
$$

...SURROUNDING SITES...

CITY           SKY/WX    TMP DP  RH WIND       PRES   REMARKS
ATLANTA        PTCLDY    41  36  82 W9        29.87R
ANNISTON       CLEAR     37  33  85 SW9       29.95R WCI  30
BIRMINGHAM     PTCLDY    44  30  57 NW8       30.02R
CHATTANOOGA    MOCLDY    45  30  55 N15       29.93R
CORINTH        MOCLDY    45  32  61 NW7       30.08R
DALTON         MOCLDY    43  32  65 NW14      29.90S
GADSDEN        PTCLDY    44  31  60 VRB7      29.97R
GOLDEN TRNGL   CLEAR     43  29  57 NW6       30.10R
HALEYVILLE     FAIR      41  31  67 NW3       30.04R
JACKSON TN     PTCLDY    42  33  70 N9        30.10R
MEMPHIS        PTCLDY    42  32  67 NW9       30.14R
NASHVILLE      CLOUDY    42  33  70 NW12G22   30.02R
OXFORD MS      FAIR      41  30  65 NW8       30.14R
ROME           MOCLDY    33  32  96 NW5       29.91R WCI  29
SAVANNAH       CLOUDY    46  34  61 N14G21    30.06R
SELMER         CLOUDY    45  32  61 N8G18     30.07R
TUPELO         CLEAR     45  30  55 NW8       30.09R
TUSCALOOSA     CLEAR     41  34  76 NW6       30.06R
$$

...GULF COAST WEATHER...

CITY           SKY/WX    TMP DP  RH WIND       PRES   REMARKS
GULFPORT       CLEAR     46  41  82 NW9       30.10R
PASCAGOULA     CLEAR     46  41  82 VRB3      30.09R
MOBILE         PTCLDY    46  40  79 NW6       30.08R
GULF SHORES    SUNNY     50  43  76 W10       30.06R
PENSACOLA      PTCLDY    52  42  69 NW9G17    30.03R
DESTIN         CLEAR     57  41  55 NW7G17    30.01R
PANAMA CITY    CLEAR     62  45  53 W20G26    29.99S
APPALACHICOLA  CLEAR     56  52  86 W8        29.99F
$$



ASUS64 KHUN 121323
RTPHUN
Temperature and Precipitation Table for the TN Valley
National Weather Service Huntsville AL
723 AM CST Tue Dec 12 2017

Values represent Highs Yesterday...Lows since 6 PM LST Yesterday
and Precipitation since 6 AM LST Yesterday.

.BR HUN 1212 CS DH00/TAIRZX/DH06/TAIRZP/PPDRZZ
:
:                             MAX   MIN
:ID        LOCATION          TEMP  TEMP    PCPN
:
: First-Order /ASOS/ Sites
DCU  : Decatur Airport     :   62 /  42 /  0.00
HSV  : Huntsville Airport  :   62 /  42 /  0.00
MSL  : Muscle Shoals Arpt  :   63 /  44 /  0.00
:
: AWOS Sites
:/Reports every 20 minutes...Precip data not included/
8A0  : Albertville Airport :   57 /  43 /
4A9  : Fort Payne Airport  :   57 /  28 /
MDQ  : Meridianville Arpt  :   59 /  37 /
CMD  : Vinemont-Cullman AP :   59 /  42 /
BGF  : Winchester Airport  :   57 /  43 /
:
:
Values represent 24-hour Highs...Lows...and Precipitation
/since 6 AM LST Yesterday/.

.BR HUN 1212 CS DH06/TAIRZX/TAIRZN/PPDRZZ
:
:                             MAX   MIN
:ID        LOCATION          TEMP  TEMP    PCPN
:
: Climate and Forestry Stations
BHFA1: Bankhead Natl Forest:   62 /  28 /  0.00
LCXA1: Courtland Airport   :   62 /  28 /  0.00
SMCA1: Crossville Ag Stn   :   58 /  25 /  0.00
CUXA1: Cullman Ag Stn      :   57 /  24 /  0.00
MSXA1: Muscle Shoals TVA   :   62 /  27 /  0.00
RUXA1: Russellville Airport:   61 /  31 /  0.00
SCXA1: Scottsboro Airport  :   58 /  25 /  0.00
VHXA1: Valley Head Water Bd:   57 /  24 /  0.00
:
: Other Reporting Stations
UAHA1: UAHuntsville BERM   :   61 /  42 /  0.00
:
.End

These data are preliminary and have not undergone final quality
control by the National Climatic Data Center /NCDC/. Therefore...
these data are subject to revision. Final and Certified Climate data
can be accessed at www.ncdc.noaa.gov.

Additional data from across the area can be found in the daily
report at SXUS54 KHUN or HUNOSOHUN...issued around 10 AM.

$$




Office: BMX ASUS44 KBMX 121310 RWRAL ALABAMA REGIONAL WEATHER ROUNDUP NATIONAL WEATHER SERVICE BIRMINGHAM AL 700 AM CST TUE DEC 12 2017 NOTE: "FAIR" INDICATES FEW OR NO CLOUDS BELOW 12,000 FEET WITH NO SIGNIFICANT WEATHER AND/OR OBSTRUCTIONS TO VISIBILITY. THE REMARK "TC" DENOTES TEMPERATURE IN DEGREES CELSIUS. ALZ001>011-014-016>018-020-121400- NORTH ALABAMA CITY SKY/WX TMP DP RH WIND PRES REMARKS MUSCLE SHOALS MOCLDY 44 31 60 W9 30.04R HUNTSVILLE CLOUDY 44 34 67 NW7 29.99R DECATUR CLOUDY 44 33 65 NW8 30.01R HALEYVILLE FAIR 41 31 67 NW3 30.04R GADSDEN PTCLDY 44 31 60 VRB7 29.97R $$ ALZ012-013-022-023-030>036-040>044-121400- WEST CENTRAL ALABAMA CITY SKY/WX TMP DP RH WIND PRES REMARKS TUSCALOOSA CLEAR 41 34 76 NW6 30.06R DEMOPOLIS N/A 37 33 87 CALM 30.08R $$ ALZ015-024>026-033>036-041>044-121400- CENTRAL ALABAMA CITY SKY/WX TMP DP RH WIND PRES REMARKS BIRMINGHAM PTCLDY 44 30 57 NW8 30.02R MONTGOMERY CLEAR 42 35 76 W8 30.00R SHELBY CO ARPT CLEAR 38 36 92 CALM 30.00R MAXWELL AFB CLEAR 42 37 81 CALM 29.98R GREENVILLE FAIR 46 35 65 NW8 29.99R SELMA FAIR 43 34 70 W8 30.02R PRATTVILLE FAIR 41 36 81 W8 29.99R BESSEMER FAIR 43 31 62 NW8 30.01R TALLADEGA FAIR 33 32 94 CALM 29.96R PELL CITY N/A 34 34 100 CALM 29.98R MARION FAIR 40 34 79 NW7 30.04R SYLACAUGA FAIR 35 35 100 W7 29.98R WCI 29 $$ ALZ019-021-028-029-037-038-045>048-121400- EAST CENTRAL ALABAMA CITY SKY/WX TMP DP RH WIND PRES REMARKS ANNISTON CLEAR 37 33 85 SW9 29.95R WCI 30 ALEXANDER CITY CLEAR 33 32 99 W3 29.95R AUBURN CLEAR 40 37 89 W7 29.94R $$ ALZ051>064-121400- SOUTHWEST ALABAMA CITY SKY/WX TMP DP RH WIND PRES REMARKS MOBILE PTCLDY 46 40 79 NW6 30.08R BROOKLEY FIELD CLEAR 49 42 77 W8 30.09R EVERGREEN CLEAR 47 38 71 CALM 30.03R $$ ALZ049-050-065>069-121400- SOUTHEAST ALABAMA CITY SKY/WX TMP DP RH WIND PRES REMARKS DOTHAN CLEAR 46 43 89 W9 29.99R OZARK CLEAR 43 40 90 W6 29.97R TROY CLEAR 39 38 96 W3 29.98R EUFAULA FAIR 47 41 80 W5 29.93R $$